Weather History for Gillette, WY

Change the Weather History Date:

Tuesday, March 19, 2013

  Actual Average Record
Temperature  
Mean Temperature 22 °F 36 °F  
Max Temperature 31 °F 48 °F 72 °F (1997)
Min Temperature 12 °F 23 °F -7 °F (1965)
Degree Days  
Heating Degree Days 43 29  
Month to date heating degree days 563 603  
Since 1 July heating degree days 5686 6011  
Cooling Degree Days 0 0  
Month to date cooling degree days 0 0  
Year to date cooling degree days 0 0  
Moisture  
Dew Point 19 °F    
Average Humidity 73    
Maximum Humidity 92    
Minimum Humidity 53    
Precipitation  
Precipitation 0.02 in 0.03 in 0.47 in (1937)
Month to date precipitation 0.14 0.51  
Year to date precipitation 1.27 1.29  
Sea Level Pressure  
Sea Level Pressure 30.22 in    
Wind  
Wind Speed 9 mph (NNW)    
Max Wind Speed 20 mph    
Max Gust Speed 24 mph    
Visibility 7 miles    
Events Snow    
T = Trace of Precipitation, MM = Missing Value Source: NWS Daily Summary

Daily Weather History Graph

Daily Weather History Graph

Search for Another Location

Airport:

Trip Planner

Search our weather history database for the weather conditions in past years. The results will help you decide how hot, cold, wet, or windy it might be!

Date:

Astronomy

Mar. 19, 2013 Rise Set
Actual Time 7:06 AM MDT 7:13 PM MDT
Civil Twilight 6:37 AM MDT 7:42 PM MDT
Nautical Twilight 6:03 AM MDT 8:16 PM MDT
Astronomical Twilight 5:29 AM MDT 8:51 PM MDT
Moon 11:46 AM MDT (3/19) 2:15 AM MDT (3/19)
Length of Visible Light 13h 05m
Length of Day
12h 07m
Waxing Crescent, 50% of the Moon is Illuminated
Mar 19
Waxing Crescent
Mar 27
Full
Apr 2
Last Quarter
Apr 10
New
Apr 18
First Quarter

Hourly Weather History & Observations

Time (MDT) Temp. Windchill Dew Point Humidity Pressure Visibility Wind Dir Wind Speed Gust Speed Precip Events Conditions
12:53 AM 26.1 °F 17.6 °F 19.0 °F 75% 30.01 in 10.0 mi WNW 8.1 mph - N/A   Clear
1:53 AM 25.0 °F 16.3 °F 19.0 °F 78% 30.02 in 10.0 mi NW 8.1 mph - N/A   Clear
2:53 AM 19.9 °F 10.1 °F 18.0 °F 92% 30.05 in 10.0 mi WSW 8.1 mph - N/A   Clear
3:53 AM 21.0 °F 11.4 °F 18.0 °F 88% 30.06 in 10.0 mi WSW 8.1 mph - N/A   Clear
4:53 AM 23.0 °F 13.1 °F 19.9 °F 88% 30.07 in 10.0 mi WSW 9.2 mph - N/A   Scattered Clouds
5:53 AM 24.1 °F 14.4 °F 19.0 °F 81% 30.11 in 10.0 mi West 9.2 mph - N/A   Overcast
6:53 AM 23.0 °F 13.1 °F 18.0 °F 81% 30.14 in 10.0 mi West 9.2 mph - N/A   Clear
7:53 AM 23.0 °F 13.9 °F 19.0 °F 85% 30.19 in 10.0 mi West 8.1 mph - N/A   Clear
8:53 AM 27.0 °F 18.7 °F 19.9 °F 75% 30.22 in 10.0 mi North 8.1 mph - N/A   Overcast
9:53 AM 28.0 °F 19.3 °F 19.9 °F 72% 30.23 in 10.0 mi North 9.2 mph - N/A   Overcast
10:09 AM 28.4 °F 20.4 °F 19.4 °F 69% 30.12 in 10.0 mi North 8.1 mph - N/A   Overcast
10:46 AM 28.4 °F 20.4 °F 21.2 °F 74% 30.14 in 10.0 mi North 8.1 mph - N/A   Overcast
10:53 AM 30.0 °F 22.4 °F 21.0 °F 69% 30.25 in 10.0 mi North 8.1 mph - N/A   Overcast
11:40 AM 28.4 °F 19.7 °F 21.2 °F 74% 30.16 in 2.0 mi North 9.2 mph - 0.00 in Snow Light Snow
11:48 AM 26.6 °F 19.1 °F 23.0 °F 86% 30.15 in 1.0 mi North 6.9 mph - 0.00 in Snow Light Snow
11:53 AM 27.0 °F 18.7 °F 23.0 °F 85% 30.27 in 1.0 mi North 8.1 mph - 0.01 in Snow Light Snow
12:07 PM 26.6 °F 17.5 °F 24.8 °F 93% 30.17 in 1.0 mi North 9.2 mph - 0.00 in Snow Light Snow
12:14 PM 28.4 °F 18.5 °F 24.8 °F 86% 30.17 in 0.8 mi North 11.5 mph - 0.00 in Snow Light Snow
12:22 PM 28.4 °F 20.4 °F 24.8 °F 86% 30.17 in 1.5 mi North 8.1 mph - 0.00 in Snow Light Snow
12:29 PM 28.4 °F 21.2 °F 24.8 °F 86% 30.17 in 3.0 mi North 6.9 mph - 0.01 in Snow Light Snow
12:42 PM 28.4 °F 19.7 °F 24.8 °F 86% 30.18 in 2.5 mi North 9.2 mph - 0.01 in Snow Light Snow
12:53 PM 27.0 °F 16.1 °F 23.0 °F 85% 30.30 in 1.0 mi NNE 12.7 mph - 0.01 in Snow Light Snow
1:13 PM 28.4 °F 17.0 °F 24.8 °F 86% 30.20 in 2.5 mi NNE 15.0 mph - 0.00 in Snow Light Snow
1:29 PM 28.4 °F 18.0 °F 24.8 °F 86% 30.19 in 3.0 mi NNE 12.7 mph - 0.00 in Snow Light Snow
1:35 PM 26.6 °F 15.7 °F 23.0 °F 86% 30.20 in 4.0 mi NNE 12.7 mph - 0.00 in Snow Light Snow
1:53 PM 28.0 °F 17.5 °F 24.1 °F 85% 30.32 in 3.0 mi North 12.7 mph - 0.00 in Snow Light Snow
2:53 PM 27.0 °F 16.1 °F 19.9 °F 75% 30.35 in 10.0 mi North 12.7 mph - 0.00 in   Overcast
3:53 PM 28.9 °F 19.2 °F 18.0 °F 64% 30.35 in 10.0 mi NNW 11.5 mph - N/A   Overcast
4:32 PM 30.2 °F 19.3 °F 15.8 °F 55% 30.23 in 10.0 mi NNW 15.0 mph - N/A   Scattered Clouds
4:53 PM 28.0 °F 17.5 °F 17.1 °F 63% 30.35 in 10.0 mi North 12.7 mph - N/A   Mostly Cloudy
5:53 PM 30.0 °F 20.0 °F 15.1 °F 54% 30.34 in 10.0 mi North 12.7 mph 20.7 mph N/A   Clear
6:53 PM 27.0 °F 19.5 °F 14.0 °F 58% 30.36 in 10.0 mi North 6.9 mph - N/A   Clear
7:53 PM 17.1 °F 11.7 °F 12.0 °F 81% 30.41 in 10.0 mi NW 3.5 mph - N/A   Clear
8:53 PM 12.0 °F - 10.0 °F 92% 30.43 in 10.0 mi Calm Calm - N/A   Clear
9:53 PM 14.0 °F 6.5 °F 10.0 °F 84% 30.42 in 10.0 mi South 4.6 mph - N/A   Clear
10:53 PM 15.1 °F 6.4 °F 12.0 °F 88% 30.41 in 10.0 mi South 5.8 mph - N/A   Clear
11:53 PM 16.0 °F 5.3 °F 12.0 °F 84% 30.40 in 10.0 mi South 8.1 mph - N/A   Clear